Flag for Switzerland Weather past 2 weeks in Steffisburg, Bern, Switzerland

Now
57 °F

Fog.


Feels Like: 57 °F
Forecast: 57 / 80 °F
Wind: 1 mph from North

Location: Bern / Belp

Current Time: Aug 1, 2014 at 2:25:08 AM

Latest Report: Aug 1, 2014 at 1:50 AM


Visibility: 2 mi

Pressure: 29.95 "Hg

Humidity: 94%

Dew point: 55 °F

Location of SteffisburgLocation

Historic Weather in Steffisburg — Graph

°F

Steffisburg temperature yesterday

Maximum temperature yesterday: 75 °F (at 4:50 PM)
Minimum temperature yesterday: 59 °F (at 11:50 PM)
Average temperature yesterday: 67 °F

Past Weeks' High & Low Weather Summary

 TemperatureHumidityPressure
High88 °F (Jul 18, 2:50 PM)100% (Jul 17, 3:20 AM)30.21 "Hg (Jul 17, 3:20 AM)
Low54 °F (Jul 17, 5:50 AM)29% (Jul 17, 6:20 PM)29.83 "Hg (Jul 28, 2:50 PM)
Average66 °F81%29.97 "Hg
* Reported Jul 17 1:20 AM — Aug 1 1:20 AM, Steffisburg, Weather by CustomWeather, © 2014

Note: Actual official high and low records may vary slightly from our data, if they occured in-between our weather recording intervals... More about our weather records

Advertising

Steffisburg weather history for previous 24 hours

 ConditionsComfort  
Time TempWeatherWind HumidityBarometerVisibility
1:20 AM
Aug 1
57 °FFog.1 mph100%29.95 "Hg2 mi
12:50 AM59 °FPassing clouds.2 mph94%29.95 "Hg4 mi
12:20 AM59 °FPassing clouds.No wind94%29.95 "Hg4 mi
11:50 PM
Jul 31
59 °FCool.1 mph94%29.95 "Hg4 mi
11:20 PM61 °FPassing clouds.1 mph94%29.95 "HgN/A
10:50 PM63 °FMild.1 mph88%29.95 "HgN/A
10:20 PM63 °FPassing clouds.1 mph94%29.95 "HgN/A
9:50 PM63 °FPassing clouds.1 mph94%29.95 "HgN/A
9:20 PM66 °FPassing clouds.No wind83%29.92 "HgN/A
8:50 PM70 °FPassing clouds.No wind69%29.92 "HgN/A
8:20 PM72 °FPassing clouds.2 mph65%29.92 "HgN/A
7:50 PM73 °FPassing clouds.5 mph61%29.92 "HgN/A
7:20 PM73 °FPassing clouds.6 mph61%29.92 "HgN/A
6:50 PM75 °FScattered clouds.7 mph57%29.92 "HgN/A
6:20 PM75 °FScattered clouds.6 mph57%29.92 "HgN/A
5:50 PM75 °FScattered clouds.6 mph57%29.92 "HgN/A
5:20 PM75 °FMild.6 mph57%29.95 "HgN/A
4:50 PM75 °FScattered clouds.8 mph57%29.95 "HgN/A
4:20 PM73 °FScattered clouds.7 mph61%29.95 "HgN/A
3:50 PM73 °FScattered clouds.7 mph61%29.95 "HgN/A
3:20 PM73 °FScattered clouds.7 mph61%29.95 "HgN/A
2:50 PM73 °FPartly sunny.3 mph65%29.98 "HgN/A
2:20 PM73 °FPartly sunny.6 mph61%29.98 "HgN/A
1:50 PM73 °FScattered clouds.6 mph61%29.98 "HgN/A
1:20 PM72 °FPartly sunny.7 mph69%29.98 "HgN/A
12:50 PM70 °FPartly sunny.5 mph73%29.98 "HgN/A
12:20 PM72 °FScattered clouds.7 mph65%29.98 "HgN/A
11:50 AM70 °FBroken clouds.6 mph69%29.98 "HgN/A
11:20 AM68 °FBroken clouds.3 mph78%29.98 "HgN/A
10:50 AM68 °FBroken clouds.6 mph78%29.98 "HgN/A
10:20 AM68 °FBroken clouds.7 mph78%30.01 "Hg6 mi
9:50 AM66 °FBroken clouds.3 mph83%30.01 "Hg4 mi
9:20 AM66 °FBroken clouds.5 mph83%30.01 "Hg4 mi
8:50 AM64 °FPartly sunny.3 mph88%30.01 "HgN/A
8:20 AM63 °FPartly sunny.3 mph94%30.01 "Hg4 mi
7:50 AM63 °FFog.2 mph94%30.01 "Hg3 mi
7:20 AM63 °FFog.3 mph94%30.01 "Hg3 mi
6:50 AM61 °FFog.1 mph100%30.01 "Hg2 mi
6:20 AM61 °FFog.No wind100%30.01 "Hg2 mi
5:50 AM61 °FFog.1 mph100%30.01 "Hg2 mi
5:20 AM61 °FPassing clouds.1 mph100%30.01 "Hg5 mi
4:50 AM61 °FMostly cloudy.1 mph100%30.01 "Hg3 mi
4:20 AM61 °FPartly cloudy.2 mph100%30.01 "Hg3 mi
3:50 AM61 °FOvercast.1 mph100%30.01 "Hg4 mi
3:20 AM61 °FLow clouds.1 mph100%30.01 "Hg6 mi
2:50 AM63 °FPassing clouds.6 mph94%30.01 "Hg4 mi
2:20 AM63 °FDrizzle. Fog.1 mph100%30.01 "Hg2 mi
Weather by CustomWeather, © 2014

See weather overviewHow to use our weather pages